Location: Asheville, NC
(35.6000°N, 82.5500°W)
Time: 02:40:26
(UTC-05:00)

Vanguard 2 - Pass Details

Date: 11 February 2018
Orbit: 553 x 2939 km, 32.9° (Epoch: 18 February)

Event Time Altitude Azimuth Distance (km) Brightness Sun altitude
Rises 19:26:26 0° 224° (SW) 4,495 12.2 -16.4°
Reaches altitude 10° 19:30:35 10° 212° (SSW) 3,084 11.1 -17.2°
Maximum altitude 19:36:08 24° 161° (SSE) 1,719 9.2 -18.4°
Enters shadow 19:37:52 21° 133° (SE) 1,735 8.9 -18.7°
Drops below altitude 10° 19:40:10 10° 107° (ESE) 2,177 - -19.2°
Sets 19:42:33 0° 92° (E) 2,925 - -19.7°
